Regional Weather Roundup
Issued by NWS Little Rock, AR

Home | Current Version | Previous Version | Text Only | Print | Product List | Glossary On
Versions: 1 2 3 4 5 6 7 8 9 10 11 12 13 14 15 16 17 18 19 20 21 22 23 24 25 26 27 28 29 30 31 32 33 34 35 36 37 38 39 40 41 42 43 44 45 46 47 48 49 50
000
ASUS44 KLZK 280705
RWRLZK

WEATHER ROUNDUP FOR ARKANSAS
NATIONAL WEATHER SERVICE LITTLE ROCK AR
200 AM CDT SUN MAY 28 2017

NOTE: "FAIR" INDICATES FEW OR NO CLOUDS BELOW 12,000 FEET WITH NO
SIGNIFICANT WEATHER AND/OR OBSTRUCTIONS TO VISIBILITY.

ARZ001-003-010-029-280800-
NORTHWEST ARKANSAS

CITY           SKY/WX    TMP DP  RH WIND       PRES   REMARKS
FAYETTEVILLE   CLOUDY    65  65 100 N3        29.81F
FORT SMITH     LGT RAIN  69  63  81 SE14      29.77F
HARRISON       TSTM      65  63  93 SE14      29.85R
BENTONVILLE    CLOUDY    64  63  94 CALM      29.83F
ROGERS         CLOUDY    64  63  96 CALM      29.84F
SILOAM SPGS    CLOUDY    64  61  88 N5        29.83R
HIGHFILL       CLOUDY    65  65 100 NW6       29.83F
$$

ARZ004-005-016-280800-
NORTH CENTRAL ARKANSAS

CITY           SKY/WX    TMP DP  RH WIND       PRES   REMARKS
BATESVILLE     CLOUDY    63  63 100 SE9G22    29.90R
FLIPPIN        CLOUDY    64  57  77 SW20G29   29.88R THUNDER
MTN HOME       CLOUDY    63  62  97 SW7       29.81F
$$

ARZ040-041-280800-
WEST CENTRAL ARKANSAS

CITY           SKY/WX    TMP DP  RH WIND       PRES   REMARKS
MENA           CLOUDY    68  68 100 W7G16     29.87R THUNDER
MOUNT IDA      LGT RAIN  80  74  81 VRB5      29.82R HX  85
$$

ARZ009-017-025-026-028-280800-
NORTHEAST ARKANSAS

CITY           SKY/WX    TMP DP  RH WIND       PRES   REMARKS
JONESBORO      LGT RAIN  65  63  93 E10       29.89F
NEWPORT        LGT RAIN  64  63  96 E21       29.85F
WALNUT RIDGE   CLOUDY    64  61  88 NE7       29.90F
BLYTHEVILLE    TSTM      65  65 100 SE8       29.95S
$$

ARZ022-023-033-042-044-280800-
CENTRAL ARKANSAS

CITY           SKY/WX    TMP DP  RH WIND       PRES   REMARKS
LITTLE ROCK    TSTM      65  65 100 NE16G24   29.91R FOG
N LITTLE ROCK    N/A     65  63  94 E16G30    29.89R
JACKSONVILLE   TSTM      66  64  94 N13       29.92R FOG
CONWAY         FOG       66  64  94 E17G26    29.88R VSB 3/4
SEARCY         TSTM      64  64 100 SE8       30.00R FOG
HOT SPRINGS    CLOUDY    79  76  90 S5        29.82R
RUSSELLVILLE   TSTM      66  63  90 CALM      29.80F
CLINTON        RAIN      66  64  94 E5        29.88R
$$

ARZ036-280800-
EAST ARKANSAS

CITY           SKY/WX    TMP DP  RH WIND       PRES   REMARKS
WEST MEMPHIS   LGT RAIN  65  65 100 E13       29.92F
$$

ARZ050-053-066-070-073-280800-
SOUTHWEST ARKANSAS

CITY           SKY/WX    TMP DP  RH WIND       PRES   REMARKS
ARKADELPHIA    PTSUNNY   79  75  87 SW5       29.83R
CAMDEN         CLOUDY    77  72  83 S8        29.81F
TEXARKANA      LGT RAIN  77  75  93 S9        29.82R
EL DORADO      CLOUDY    74  72  93 S5        29.84F
DE QUEEN       TSTM      68  68 100 W10G24    29.83R VSB 3/4
$$

ARZ056-057-069-280800-
SOUTHEAST ARKANSAS

CITY           SKY/WX    TMP DP  RH WIND       PRES   REMARKS
PINE BLUFF     MOCLDY    78  74  87 S3        29.85R
STUTTGART      CLOUDY    66  55  68 NE26G32   29.91F THUNDER
MONTICELLO     CLOUDY    76  73  91 S7        29.85S

$$





USA.gov is the U.S. government's official web portal to all federal, state and local government web resources and services.